[[{"header":{"parameterUnit":"m.s-1","parameterCategory":1,"la1":30.2992,"la2":30.254,"lo1":-89.0895,"lo2":-89.0443,"dy":0.0025,"dx":0.0025,"nx":19,"ny":19,"refTime":"2026-04-05T03:00:00:Z","depth":0,"parameterNumber":2,"parameterNumberName":"U-component_of_WINDS"},"data":[0,0,0,-1.1426,-1.1428,-1.1559,-1.156,-1.1726,-1.1728,0,0,0,0,0,0,0,0,0,0,0,-1.1386,-1.1387,-1.1425,-1.1429,-1.1559,-1.156,-1.1726,-1.1728,0,0,0,0,0,0,0,0,0,0,0,-1.1386,-1.1387,-1.1388,-1.1429,-1.1559,-1.156,-1.1725,-1.1627,0,0,0,0,0,0,0,0,0,0,-1.1501,-1.1464,-1.1387,-1.1388,-1.143,-1.1559,-1.156,-1.1623,-1.1633,-1.1666,0,-1.1695,0,-1.1714,-1.1739,-1.1739,0,0,0,-1.1429,-1.1454,-1.149,-1.1389,-1.1431,-1.1559,-1.15,-1.1629,-1.1641,-1.1681,-1.1698,-1.1704,-1.1717,-1.174,-1.174,-1.1928,-1.1929,0,0,-1.1422,-1.141,-1.1482,-1.1498,-1.1477,-1.1496,-1.1504,-1.1636,-1.1654,-1.1698,-1.1708,-1.1719,-1.1741,-1.1742,-1.1927,-1.1928,0,0,0,-1.1401,-1.1405,-1.1437,-1.1491,-1.1515,-1.15,-1.1509,-1.1648,-1.166,-1.171,-1.1721,-1.1742,-1.1744,-1.1926,-1.1927,-1.1958,0,0,0,-1.1397,-1.1392,-1.1434,-1.1427,-1.1512,-1.1583,-1.1519,-1.165,-1.1666,-1.1721,-1.1742,-1.1745,-1.1925,-1.1927,-1.1955,-1.1975,0,0,0,-1.1378,-1.139,-1.1409,-1.1427,-1.1482,-1.1581,-1.16,-1.1654,-1.1673,-1.1739,-1.1746,-1.1925,-1.1927,-1.1953,-1.1971,-1.2022,0,0,0,-1.1355,-1.1434,-1.1409,-1.1501,-1.1481,-1.1598,-1.16,-1.1688,-1.1748,-1.1743,-1.1925,-1.1927,-1.1952,-1.1969,-1.2019,-1.2064,-1.2081,0,0,-1.1448,-1.1444,-1.15,-1.1481,-1.16,-1.1579,-1.1702,-1.177,-1.1787,-1.188,-1.1885,-1.1956,-1.1971,-1.2021,-1.2176,-1.2189,0,0,0,-1.1525,-1.1565,-1.1599,-1.1656,-1.1708,-1.1755,-1.1805,-1.1829,-1.1909,-1.1832,-1.1987,-1.1996,-1.2027,-1.2049,-1.206,-1.2087,-1.1936,-1.1936,-1.1936,-1.1641,-1.1658,-1.1751,-1.1785,-1.1839,-1.1888,-1.1935,-1.1977,-1.1979,-1.2015,-1.2044,-1.2135,-1.216,-1.2169,-1.2197,-1.2067,-1.2067,-1.2067,-1.2067,-1.178,-1.184,-1.1839,-1.193,-1.1948,-1.2024,-1.2074,-1.2073,-1.2147,-1.2115,-1.2143,-1.2108,-1.2183,-1.2209,-1.2069,-1.2069,-1.2069,-1.2068,-1.2068,-1.186,-1.1892,-1.1919,-1.2002,-1.2064,-1.2094,-1.2165,-1.2178,-1.2192,-1.2218,-1.2251,-1.225,-1.2253,-1.2232,-1.2233,-1.2233,-1.2233,-1.2233,-1.2234,-1.1932,-1.1962,-1.2021,-1.2082,-1.2119,-1.2171,-1.2219,-1.2257,-1.2303,-1.2307,-1.2307,-1.2307,-1.2186,-1.2157,-1.2239,-1.2238,-1.2237,-1.2237,-1.2236,-1.2072,-1.2042,-1.2132,-1.2169,-1.2242,-1.2303,-1.2317,-1.2393,-1.2425,-1.246,-1.2453,-1.236,-1.2359,-1.235,-1.2326,-1.2447,-1.2447,-1.2447,-1.2447,-1.2141,-1.214,-1.2235,-1.2294,-1.2353,-1.2375,-1.2477,-1.2515,-1.255,-1.2571,-1.2555,-1.2523,-1.2513,-1.2518,-1.2505,-1.2483,-1.2642,-1.2642,-1.2642,-1.2228,-1.2233,-1.2318,-1.235,-1.2408,-1.2457,-1.2553,-1.2621,-1.2654,-1.265,-1.2589,-1.2581,-1.253,-1.2512,-1.251,-1.249,-1.245,0,0]},{"header":{"parameterUnit":"m.s-1","parameterCategory":1,"la1":30.2992,"la2":30.254,"lo1":-89.0895,"lo2":-89.0443,"dy":0.0025,"dx":0.0025,"nx":19,"ny":19,"refTime":"2026-04-05T03:00:00:Z","depth":0,"parameterNumber":3,"parameterNumberName":"V-component_of_WINDS"},"data":[0,0,0,-6.1038,-6.1042,-6.1203,-6.1204,-6.1422,-6.1424,0,0,0,0,0,0,0,0,0,0,0,-6.1001,-6.1003,-6.1038,-6.1042,-6.1203,-6.1204,-6.1422,-6.1424,0,0,0,0,0,0,0,0,0,0,0,-6.1,-6.1002,-6.1004,-6.1043,-6.1203,-6.1204,-6.1421,-6.1295,0,0,0,0,0,0,0,0,0,0,-6.1136,-6.1112,-6.1002,-6.1004,-6.1044,-6.1203,-6.1204,-6.1288,-6.1303,-6.1355,0,-6.1407,0,-6.142,-6.144,-6.1441,0,0,0,-6.1034,-6.11,-6.1135,-6.1005,-6.1046,-6.1203,-6.1128,-6.1296,-6.1312,-6.1374,-6.141,-6.1418,-6.1423,-6.1441,-6.1443,-6.1782,-6.1783,0,0,-6.1025,-6.1034,-6.1124,-6.1146,-6.1125,-6.1123,-6.1133,-6.1306,-6.1344,-6.1411,-6.1423,-6.1427,-6.1443,-6.1445,-6.178,-6.1782,0,0,0,-6.1005,-6.1029,-6.1059,-6.1137,-6.1165,-6.1128,-6.114,-6.1337,-6.1346,-6.1425,-6.1429,-6.1444,-6.1447,-6.1778,-6.1781,-6.1889,0,0,0,-6.0999,-6.1017,-6.1055,-6.1062,-6.1163,-6.1254,-6.1167,-6.1334,-6.1353,-6.1428,-6.1444,-6.1449,-6.1775,-6.1779,-6.1882,-6.1939,0,0,0,-6.0987,-6.1015,-6.1042,-6.1063,-6.1133,-6.1251,-6.1269,-6.1338,-6.1356,-6.1441,-6.145,-6.1774,-6.1778,-6.1875,-6.1928,-6.2032,0,0,0,-6.0975,-6.1135,-6.1044,-6.1224,-6.1132,-6.1317,-6.1268,-6.1405,-6.1491,-6.1446,-6.1776,-6.178,-6.1873,-6.1921,-6.2025,-6.2123,-6.2164,0,0,-6.1182,-6.116,-6.1265,-6.1189,-6.1394,-6.1292,-6.1512,-6.158,-6.1577,-6.1713,-6.1721,-6.1884,-6.1927,-6.2031,-6.2392,-6.2425,0,0,0,-6.1334,-6.141,-6.1462,-6.1546,-6.1603,-6.1657,-6.169,-6.1715,-6.183,-6.165,-6.1949,-6.1974,-6.2035,-6.2081,-6.2109,-6.216,-6.1802,-6.1801,-6.1801,-6.164,-6.1631,-6.1805,-6.1816,-6.1897,-6.1931,-6.1995,-6.2034,-6.1998,-6.207,-6.211,-6.2331,-6.2385,-6.2406,-6.246,-6.216,-6.216,-6.2161,-6.2161,-6.1943,-6.205,-6.2002,-6.2153,-6.2141,-6.2267,-6.2305,-6.2276,-6.2391,-6.2299,-6.2352,-6.2253,-6.2443,-6.2489,-6.2169,-6.2168,-6.2167,-6.2166,-6.2165,-6.2144,-6.2193,-6.2223,-6.2343,-6.2436,-6.244,-6.2553,-6.2537,-6.2523,-6.2575,-6.2617,-6.2615,-6.2612,-6.2596,-6.2597,-6.2597,-6.2598,-6.2599,-6.2599,-6.2341,-6.237,-6.2469,-6.2545,-6.2597,-6.2663,-6.2698,-6.2748,-6.2799,-6.2778,-6.2778,-6.2737,-6.2463,-6.2396,-6.2611,-6.2609,-6.2607,-6.2606,-6.2605,-6.2653,-6.258,-6.2733,-6.2786,-6.2873,-6.2966,-6.2945,-6.3048,-6.3086,-6.3143,-6.309,-6.289,-6.2866,-6.2843,-6.2787,-6.3091,-6.3091,-6.3091,-6.3091,-6.2823,-6.281,-6.2963,-6.3048,-6.3129,-6.3126,-6.3297,-6.3325,-6.3343,-6.3366,-6.3319,-6.3243,-6.3221,-6.321,-6.3179,-6.3127,-6.351,-6.351,-6.3511,-6.3015,-6.3009,-6.3159,-6.3178,-6.3245,-6.3303,-6.3463,-6.356,-6.3565,-6.3528,-6.3384,-6.3366,-6.3243,-6.3203,-6.3164,-6.3117,-6.302,0,0]}]]